Time,TemperatureF,DewpointF,PressureIn,WindDirection,WindDirectionDegrees,WindSpeedMPH,WindSpeedGustMPH,Humidity,HourlyPrecipIn,Conditions,Clouds,dailyrainin,SolarRadiationWatts/m^2,SoftwareType,DateUTC
2013-08-17 00:11:00,73.0,58.0,-100.00,SE,143,9.0,18.0,60,0.00,,,0.00,0.000000,,2013-08-17 07:11:00,
2013-08-17 00:21:00,73.0,58.0,-100.00,SE,143,9.0,18.0,60,0.00,,,0.00,0.000000,,2013-08-17 07:21:00,
2013-08-17 00:32:00,73.0,58.0,-100.00,SE,143,9.0,18.0,60,0.00,,,0.00,0.000000,,2013-08-17 07:32:00,
2013-08-17 00:41:00,73.0,58.0,-100.00,SE,143,9.0,18.0,60,0.00,,,0.00,0.000000,,2013-08-17 07:41:00,
2013-08-17 01:11:00,71.0,58.0,-100.00,SE,132,14.0,18.0,63,0.00,,,0.00,0.000000,,2013-08-17 08:11:00,
2013-08-17 01:21:00,71.0,58.0,-100.00,SE,132,14.0,18.0,63,0.00,,,0.00,0.000000,,2013-08-17 08:21:00,
2013-08-17 01:32:00,71.0,58.0,-100.00,SE,132,14.0,18.0,63,0.00,,,0.00,0.000000,,2013-08-17 08:32:00,
2013-08-17 01:41:00,71.0,58.0,-100.00,SE,132,14.0,18.0,63,0.00,,,0.00,0.000000,,2013-08-17 08:41:00,
2013-08-17 02:11:00,73.0,59.0,-100.00,SSE,167,14.0,21.0,61,0.00,,,0.00,0.000000,,2013-08-17 09:11:00,
2013-08-17 02:21:00,73.0,59.0,-100.00,SSE,167,14.0,21.0,61,0.00,,,0.00,0.000000,,2013-08-17 09:21:00,
2013-08-17 02:33:00,73.0,59.0,-100.00,SSE,167,14.0,21.0,61,0.00,,,0.00,0.000000,,2013-08-17 09:33:00,
2013-08-17 02:43:00,73.0,59.0,-100.00,SSE,167,14.0,21.0,61,0.00,,,0.00,0.000000,,2013-08-17 09:43:00,
2013-08-17 03:12:00,71.0,59.0,-100.00,SSE,167,13.0,19.0,66,0.00,,,-99.99,0.000000,,2013-08-17 10:12:00,
2013-08-17 03:23:00,71.0,59.0,-100.00,SSE,167,13.0,19.0,66,0.00,,,-99.99,0.000000,,2013-08-17 10:23:00,
2013-08-17 03:32:00,71.0,59.0,-100.00,SSE,167,13.0,19.0,66,0.00,,,-99.99,0.000000,,2013-08-17 10:32:00,
2013-08-17 03:42:00,71.0,59.0,-100.00,SSE,167,13.0,19.0,66,0.00,,,-99.99,0.000000,,2013-08-17 10:42:00,
2013-08-17 04:11:00,69.0,57.0,-100.00,SSE,168,11.0,15.0,65,0.00,,,0.00,0.000000,,2013-08-17 11:11:00,
2013-08-17 04:21:00,69.0,57.0,-100.00,SSE,168,11.0,15.0,65,0.00,,,0.00,0.000000,,2013-08-17 11:21:00,
2013-08-17 04:32:00,69.0,57.0,-100.00,SSE,168,11.0,15.0,65,0.00,,,0.00,0.000000,,2013-08-17 11:32:00,
2013-08-17 04:42:00,69.0,57.0,-100.00,SSE,168,11.0,15.0,65,0.00,,,0.00,0.000000,,2013-08-17 11:42:00,
2013-08-17 05:11:00,69.0,58.0,-100.00,SSW,204,9.0,18.0,68,0.00,,,0.00,0.000000,,2013-08-17 12:11:00,
2013-08-17 05:21:00,69.0,58.0,-100.00,SSW,204,9.0,18.0,68,0.00,,,0.00,0.000000,,2013-08-17 12:21:00,
2013-08-17 05:32:00,69.0,58.0,-100.00,SSW,204,9.0,18.0,68,0.00,,,0.00,0.000000,,2013-08-17 12:32:00,
2013-08-17 05:41:00,69.0,58.0,-100.00,SSW,204,9.0,18.0,68,0.00,,,0.00,0.000000,,2013-08-17 12:41:00,
2013-08-17 06:11:00,67.0,58.0,-100.00,SE,144,6.0,14.0,73,0.00,,,0.00,0.000000,,2013-08-17 13:11:00,
2013-08-17 06:21:00,67.0,58.0,-100.00,SE,144,6.0,14.0,73,0.00,,,0.00,0.000000,,2013-08-17 13:21:00,
2013-08-17 06:32:00,67.0,58.0,-100.00,SE,144,6.0,14.0,73,0.00,,,0.00,0.000000,,2013-08-17 13:32:00,
2013-08-17 06:42:00,67.0,58.0,-100.00,SE,144,6.0,14.0,73,0.00,,,0.00,0.000000,,2013-08-17 13:42:00,
2013-08-17 07:11:00,67.0,58.0,-100.00,SSE,161,8.0,11.0,72,0.00,,,0.00,34.000000,,2013-08-17 14:11:00,
2013-08-17 07:21:00,67.0,58.0,-100.00,SSE,161,8.0,11.0,72,0.00,,,0.00,34.000000,,2013-08-17 14:21:00,
2013-08-17 07:31:00,67.0,58.0,-100.00,SSE,161,8.0,11.0,72,0.00,,,0.00,34.000000,,2013-08-17 14:31:00,
2013-08-17 07:41:00,67.0,58.0,-100.00,SSE,161,8.0,11.0,72,0.00,,,0.00,34.000000,,2013-08-17 14:41:00,
2013-08-17 08:11:00,71.0,58.0,-100.00,South,188,11.0,15.0,63,0.00,,,0.00,215.000000,,2013-08-17 15:11:00,
2013-08-17 08:22:00,71.0,58.0,-100.00,South,188,11.0,15.0,63,0.00,,,0.00,215.000000,,2013-08-17 15:22:00,
2013-08-17 08:33:00,71.0,58.0,-100.00,South,188,11.0,15.0,63,0.00,,,0.00,215.000000,,2013-08-17 15:33:00,
2013-08-17 08:43:00,71.0,58.0,-100.00,South,188,11.0,15.0,63,0.00,,,0.00,215.000000,,2013-08-17 15:43:00,
2013-08-17 09:12:00,76.0,60.0,-100.00,SSW,193,12.0,16.0,57,0.00,,,0.00,426.000000,,2013-08-17 16:12:00,
2013-08-17 09:23:00,76.0,60.0,-100.00,SSW,193,12.0,16.0,57,0.00,,,0.00,426.000000,,2013-08-17 16:23:00,
2013-08-17 09:33:00,76.0,60.0,-100.00,SSW,193,12.0,16.0,57,0.00,,,0.00,426.000000,,2013-08-17 16:33:00,
2013-08-17 09:42:00,76.0,60.0,-100.00,SSW,193,12.0,16.0,57,0.00,,,0.00,426.000000,,2013-08-17 16:42:00,
2013-08-17 10:12:00,79.0,58.0,-100.00,SSW,212,8.0,16.0,49,0.00,,,0.00,637.000000,,2013-08-17 17:12:00,
2013-08-17 10:23:00,79.0,58.0,-100.00,SSW,212,8.0,16.0,49,0.00,,,0.00,637.000000,,2013-08-17 17:23:00,
2013-08-17 10:32:00,79.0,58.0,-100.00,SSW,212,8.0,16.0,49,0.00,,,0.00,637.000000,,2013-08-17 17:32:00,
2013-08-17 10:42:00,79.0,58.0,-100.00,SSW,212,8.0,16.0,49,0.00,,,0.00,637.000000,,2013-08-17 17:42:00,
2013-08-17 11:42:00,84.0,60.0,-100.00,SSW,206,7.0,14.0,44,0.00,,,0.00,813.000000,,2013-08-17 18:42:00,
2013-08-17 12:11:00,84.0,58.0,-100.00,SW,226,9.0,22.0,41,0.00,,,0.00,944.000000,,2013-08-17 19:11:00,
2013-08-17 12:21:00,84.0,58.0,-100.00,SW,226,9.0,22.0,41,0.00,,,0.00,944.000000,,2013-08-17 19:21:00,
2013-08-17 12:31:00,84.0,58.0,-100.00,SW,226,9.0,22.0,41,0.00,,,0.00,944.000000,,2013-08-17 19:31:00,
2013-08-17 12:41:00,84.0,58.0,-100.00,SW,226,9.0,22.0,41,0.00,,,0.00,944.000000,,2013-08-17 19:41:00,
2013-08-17 13:11:00,88.0,58.0,-100.00,South,190,11.0,19.0,37,0.00,,,0.00,1026.000000,,2013-08-17 20:11:00,
2013-08-17 13:21:00,88.0,58.0,-100.00,South,190,11.0,19.0,37,0.00,,,0.00,1026.000000,,2013-08-17 20:21:00,
2013-08-17 13:32:00,88.0,58.0,-100.00,South,190,11.0,19.0,37,0.00,,,0.00,1026.000000,,2013-08-17 20:32:00,
2013-08-17 13:41:00,88.0,58.0,-100.00,South,190,11.0,19.0,37,0.00,,,0.00,1026.000000,,2013-08-17 20:41:00,
2013-08-17 14:11:00,90.0,57.0,-100.00,SSW,208,8.0,18.0,33,0.00,,,0.00,1039.000000,,2013-08-17 21:11:00,
2013-08-17 14:21:00,90.0,57.0,-100.00,SSW,208,8.0,18.0,33,0.00,,,0.00,1039.000000,,2013-08-17 21:21:00,
2013-08-17 14:33:00,90.0,57.0,-100.00,SSW,208,8.0,18.0,33,0.00,,,0.00,1039.000000,,2013-08-17 21:33:00,
2013-08-17 14:42:00,90.0,57.0,-100.00,SSW,208,8.0,18.0,33,0.00,,,0.00,1039.000000,,2013-08-17 21:42:00,
2013-08-17 15:13:00,90.0,55.0,-100.00,SSW,197,9.0,20.0,31,0.00,,,0.00,760.000000,,2013-08-17 22:13:00,
2013-08-17 15:22:00,90.0,55.0,-100.00,SSW,197,9.0,20.0,31,0.00,,,0.00,760.000000,,2013-08-17 22:22:00,
2013-08-17 15:32:00,90.0,55.0,-100.00,SSW,197,9.0,20.0,31,0.00,,,0.00,760.000000,,2013-08-17 22:32:00,
2013-08-17 15:42:00,90.0,55.0,-100.00,SSW,197,9.0,20.0,31,0.00,,,0.00,760.000000,,2013-08-17 22:42:00,
2013-08-17 16:11:00,92.0,55.0,-100.00,SSW,207,12.0,21.0,29,0.00,,,0.00,642.000000,,2013-08-17 23:11:00,
2013-08-17 16:22:00,92.0,55.0,-100.00,SSW,207,12.0,21.0,29,0.00,,,0.00,642.000000,,2013-08-17 23:22:00,
2013-08-17 16:32:00,92.0,55.0,-100.00,SSW,207,12.0,21.0,29,0.00,,,0.00,642.000000,,2013-08-17 23:32:00,
2013-08-17 16:42:00,92.0,55.0,-100.00,SSW,207,12.0,21.0,29,0.00,,,0.00,642.000000,,2013-08-17 23:42:00,
2013-08-17 17:12:00,89.0,54.0,-100.00,WSW,243,9.0,16.0,30,0.00,,,0.00,405.000000,,2013-08-18 00:12:00,
2013-08-17 17:21:00,89.0,54.0,-100.00,WSW,243,9.0,16.0,30,0.00,,,0.00,405.000000,,2013-08-18 00:21:00,
2013-08-17 17:32:00,89.0,54.0,-100.00,WSW,243,9.0,16.0,30,0.00,,,0.00,405.000000,,2013-08-18 00:32:00,
2013-08-17 17:41:00,89.0,54.0,-100.00,WSW,243,9.0,16.0,30,0.00,,,0.00,405.000000,,2013-08-18 00:41:00,
2013-08-17 18:11:00,90.0,53.0,-100.00,WSW,239,4.0,12.0,29,0.00,,,0.00,330.000000,,2013-08-18 01:11:00,
2013-08-17 18:21:00,90.0,53.0,-100.00,WSW,239,4.0,12.0,29,0.00,,,0.00,330.000000,,2013-08-18 01:21:00,
2013-08-17 18:31:00,90.0,53.0,-100.00,WSW,239,4.0,12.0,29,0.00,,,0.00,330.000000,,2013-08-18 01:31:00,
2013-08-17 18:41:00,90.0,53.0,-100.00,WSW,239,4.0,12.0,29,0.00,,,0.00,330.000000,,2013-08-18 01:41:00,
2013-08-17 19:11:00,90.0,53.0,-100.00,West,281,7.0,12.0,29,0.00,,,0.00,254.000000,,2013-08-18 02:11:00,
2013-08-17 19:21:00,90.0,53.0,-100.00,West,281,7.0,12.0,29,0.00,,,0.00,254.000000,,2013-08-18 02:21:00,
2013-08-17 19:32:00,90.0,53.0,-100.00,West,281,7.0,12.0,29,0.00,,,0.00,254.000000,,2013-08-18 02:32:00,
2013-08-17 19:41:00,90.0,53.0,-100.00,West,281,7.0,12.0,29,0.00,,,0.00,254.000000,,2013-08-18 02:41:00,
2013-08-17 20:11:00,85.0,48.0,-100.00,WSW,249,7.0,13.0,28,0.00,,,0.00,32.000000,,2013-08-18 03:11:00,
2013-08-17 20:21:00,85.0,48.0,-100.00,WSW,249,7.0,13.0,28,0.00,,,0.00,32.000000,,2013-08-18 03:21:00,
2013-08-17 20:33:00,85.0,48.0,-100.00,WSW,249,7.0,13.0,28,0.00,,,0.00,32.000000,,2013-08-18 03:33:00,
2013-08-17 20:43:00,85.0,48.0,-100.00,WSW,249,7.0,13.0,28,0.00,,,0.00,32.000000,,2013-08-18 03:43:00,
2013-08-17 21:02:00,-999.0,-99.9,-100.00,NW,308,6.0,11.0,-999,0.00,,,0.00,3.000000,,2013-08-18 04:02:00,
2013-08-17 21:12:00,76.0,48.0,-100.00,NW,308,6.0,11.0,37,0.00,,,0.00,3.000000,,2013-08-18 04:12:00,
2013-08-17 21:23:00,76.0,48.0,-100.00,NW,308,6.0,11.0,37,0.00,,,0.00,3.000000,,2013-08-18 04:23:00,
2013-08-17 21:32:00,76.0,48.0,-100.00,NW,308,6.0,11.0,37,0.00,,,0.00,3.000000,,2013-08-18 04:32:00,
2013-08-17 21:42:00,76.0,48.0,-100.00,NW,308,6.0,11.0,37,0.00,,,0.00,3.000000,,2013-08-18 04:42:00,
2013-08-17 22:12:00,75.0,52.0,-100.00,NNW,343,6.0,11.0,45,0.00,,,0.00,0.000000,,2013-08-18 05:12:00,
2013-08-17 22:22:00,75.0,52.0,-100.00,NNW,343,6.0,11.0,45,0.00,,,0.00,0.000000,,2013-08-18 05:22:00,
2013-08-17 22:33:00,75.0,52.0,-100.00,NNW,343,6.0,11.0,45,0.00,,,0.00,0.000000,,2013-08-18 05:33:00,
2013-08-17 22:42:00,75.0,52.0,-100.00,NNW,343,6.0,11.0,45,0.00,,,0.00,0.000000,,2013-08-18 05:42:00,
2013-08-17 23:11:00,72.0,48.0,-100.00,North,351,4.0,13.0,43,0.00,,,0.00,0.000000,,2013-08-18 06:11:00,
2013-08-17 23:21:00,72.0,48.0,-100.00,North,351,4.0,13.0,43,0.00,,,0.00,0.000000,,2013-08-18 06:21:00,
2013-08-17 23:31:00,72.0,48.0,-100.00,North,351,4.0,13.0,43,0.00,,,0.00,0.000000,,2013-08-18 06:31:00,
2013-08-17 23:41:00,72.0,48.0,-100.00,North,351,4.0,13.0,43,0.00,,,0.00,0.000000,,2013-08-18 06:41:00,